JBM49H EHEH-LZIB

Flight info

Callsign JBM49H
Flight time 1h 35m
Altitude 39000
Route VELNI Y869 SUMOP L179 MEVEL Z44 HMM L620 EXOBA DCT NOMKA DCT TALEG L620 PIKIB DCT OMELO DCT EVIKU DCT BNO DCT ODNEM A4 BERVA
Aircraft A320/M-SDE3FGHIRWY/LB1

Departure

Time 2026-05-04 17:39
Airport Eindhoven Airport (EHEH)

Arrival

Time 2026-05-04 19:14
Airport M. R. Štefánik Airport (LZIB)
Time Latitude Longitude Altitude Speed Heading
2026-05-04 17:07 51.45887 5.39102 75 ft 0 kts 125°
2026-05-04 17:29 51.45908 5.39054 60 ft 4 kts 124°
2026-05-04 17:30 51.45906 5.38962 75 ft 0 kts 35°
2026-05-04 17:36 51.45908 5.38964 75 ft 2 kts 35°
2026-05-04 17:36 51.45950 5.39011 70 ft 10 kts 35°
2026-05-04 17:36 51.45959 5.39022 75 ft 0 kts 35°
2026-05-04 17:36 51.45963 5.39025 67 ft 3 kts 29°
2026-05-04 17:37 51.45978 5.38984 70 ft 7 kts 298°
2026-05-04 17:37 51.46000 5.38917 63 ft 6 kts 301°
2026-05-04 17:37 51.46017 5.38879 75 ft 7 kts 305°
2026-05-04 17:37 51.46053 5.38797 64 ft 9 kts 305°
2026-05-04 17:38 51.46089 5.38717 67 ft 8 kts 305°
2026-05-04 17:38 51.46081 5.38648 66 ft 6 kts 217°
2026-05-04 17:38 51.46064 5.38629 75 ft 4 kts 215°
2026-05-04 17:38 51.45875 5.38417 72 ft 73 kts 214°
2026-05-04 17:39 51.44352 5.36709 387 ft 167 kts 214°
2026-05-04 17:39 51.43364 5.35613 1063 ft 177 kts 213°
2026-05-04 17:39 51.42310 5.34462 1566 ft 196 kts 213°
2026-05-04 17:40 51.41110 5.33153 2011 ft 222 kts 214°
2026-05-04 17:40 51.39726 5.31967 2834 ft 229 kts 193°
2026-05-04 17:40 51.38140 5.31934 3823 ft 231 kts 164°
2026-05-04 17:40 51.36732 5.33137 4807 ft 233 kts 136°
2026-05-04 17:41 51.35845 5.35299 5722 ft 237 kts 107°
2026-05-04 17:41 51.35719 5.37925 6640 ft 241 kts 78°
2026-05-04 17:41 51.36303 5.40446 7543 ft 244 kts 67°
2026-05-04 17:41 51.36808 5.43052 8482 ft 247 kts 79°
2026-05-04 17:42 51.36919 5.45789 9399 ft 252 kts 89°
2026-05-04 17:42 51.36892 5.48629 10332 ft 255 kts 92°
2026-05-04 17:42 51.36728 5.51456 11140 ft 256 kts 93°
2026-05-04 17:42 51.36654 5.54303 11967 ft 261 kts 92°
2026-05-04 17:43 51.36603 5.57259 12564 ft 275 kts 88°
2026-05-04 17:43 51.36644 5.60459 12900 ft 300 kts 87°
2026-05-04 17:43 51.36736 5.63925 13188 ft 324 kts 83°
2026-05-04 17:43 51.37318 5.67475 13719 ft 335 kts 66°
2026-05-04 17:44 51.38290 5.70901 14469 ft 340 kts 65°
2026-05-04 17:44 51.39268 5.74377 15234 ft 345 kts 65°
2026-05-04 17:44 51.40255 5.77914 15969 ft 350 kts 66°
2026-05-04 17:44 51.41258 5.81506 16646 ft 355 kts 67°
2026-05-04 17:45 51.42274 5.85143 17330 ft 360 kts 67°
2026-05-04 17:45 51.43307 5.88832 18022 ft 365 kts 67°
2026-05-04 17:45 51.44342 5.92516 18642 ft 369 kts 67°
2026-05-04 17:45 51.45403 5.96295 19227 ft 373 kts 67°
2026-05-04 17:46 51.46476 6.00124 19823 ft 378 kts 67°
2026-05-04 17:46 51.47558 6.03998 20405 ft 382 kts 67°
2026-05-04 17:46 51.48647 6.07909 20980 ft 387 kts 68°
2026-05-04 17:46 51.49748 6.11877 21550 ft 391 kts 68°
2026-05-04 17:47 51.50859 6.15881 22104 ft 395 kts 68°
2026-05-04 17:47 51.51983 6.19942 22647 ft 399 kts 68°
2026-05-04 17:47 51.53111 6.24037 23192 ft 404 kts 68°
2026-05-04 17:47 51.54254 6.28175 23644 ft 409 kts 67°
2026-05-04 17:48 51.55422 6.32403 23906 ft 418 kts 67°
2026-05-04 17:48 51.56603 6.36682 24118 ft 420 kts 68°
2026-05-04 17:48 51.57789 6.40993 24583 ft 423 kts 68°
2026-05-04 17:48 51.58980 6.45335 25024 ft 427 kts 68°
2026-05-04 17:49 51.60163 6.49656 25449 ft 430 kts 68°
2026-05-04 17:49 51.61377 6.54090 25886 ft 434 kts 68°
2026-05-04 17:49 51.62589 6.58545 26323 ft 436 kts 69°
2026-05-04 17:49 51.63806 6.63033 26802 ft 438 kts 69°
2026-05-04 17:50 51.65029 6.67548 27222 ft 441 kts 69°
2026-05-04 17:50 51.66264 6.72110 27633 ft 445 kts 69°
2026-05-04 17:50 51.67503 6.76689 28038 ft 448 kts 69°
2026-05-04 17:50 51.68756 6.81326 28437 ft 453 kts 68°
2026-05-04 17:51 51.70038 6.86009 28822 ft 458 kts 66°
2026-05-04 17:51 51.71622 6.90492 29251 ft 464 kts 57°
2026-05-04 17:51 51.73509 6.94669 29637 ft 468 kts 54°
2026-05-04 17:51 51.75452 6.98912 30047 ft 471 kts 54°
2026-05-04 17:52 51.77405 7.03182 30391 ft 475 kts 54°
2026-05-04 17:52 51.79365 7.07489 30746 ft 477 kts 54°
2026-05-04 17:52 51.81332 7.11825 31072 ft 479 kts 56°
2026-05-04 17:52 51.83086 7.16410 31389 ft 480 kts 65°
2026-05-04 17:53 51.84393 7.21397 31694 ft 479 kts 75°
2026-05-04 17:53 51.85201 7.26589 32124 ft 474 kts 84°
2026-05-04 17:53 51.85529 7.31862 32556 ft 469 kts 93°
2026-05-04 17:53 51.85569 7.37139 32917 ft 470 kts 94°
2026-05-04 17:54 51.85600 7.42389 33281 ft 471 kts 94°
2026-05-04 17:54 51.85629 7.47740 33701 ft 471 kts 94°
2026-05-04 17:54 51.85652 7.53003 34111 ft 470 kts 94°
2026-05-04 17:54 51.85670 7.58230 34478 ft 469 kts 94°
2026-05-04 17:55 51.85680 7.63495 34832 ft 468 kts 94°
2026-05-04 17:55 51.85648 7.68768 35179 ft 466 kts 97°
2026-05-04 17:55 51.85239 7.73935 35524 ft 460 kts 106°
2026-05-04 17:55 51.84530 7.78970 35860 ft 459 kts 107°
2026-05-04 17:56 51.83811 7.84015 36149 ft 459 kts 107°
2026-05-04 17:56 51.83094 7.89043 36429 ft 460 kts 107°
2026-05-04 17:56 51.82369 7.94081 36739 ft 459 kts 107°
2026-05-04 17:56 51.81640 7.99110 37041 ft 459 kts 107°
2026-05-04 17:57 51.80911 8.04135 37345 ft 458 kts 107°
2026-05-04 17:57 51.80187 8.09148 37642 ft 458 kts 107°
2026-05-04 17:57 51.79460 8.14155 37941 ft 457 kts 107°
2026-05-04 17:57 51.78729 8.19160 38230 ft 457 kts 106°
2026-05-04 17:58 51.78008 8.24084 38505 ft 456 kts 106°
2026-05-04 17:58 51.77274 8.29065 38726 ft 455 kts 107°
2026-05-04 17:58 51.76537 8.34053 38886 ft 457 kts 106°
2026-05-04 17:58 51.75820 8.39066 38964 ft 458 kts 105°
2026-05-04 17:59 51.74442 8.49144 38999 ft 459 kts 105°
2026-05-04 18:00 51.72395 8.64191 38999 ft 458 kts 106°
2026-05-04 18:00 51.70994 8.74214 39002 ft 457 kts 106°
2026-05-04 18:01 51.69574 8.84247 38999 ft 460 kts 106°
2026-05-04 18:01 51.68144 8.94272 39001 ft 460 kts 106°
2026-05-04 18:02 51.65984 9.09377 39000 ft 461 kts 106°
2026-05-04 18:02 51.64529 9.19429 38994 ft 460 kts 106°
2026-05-04 18:03 51.63074 9.29424 38991 ft 461 kts 106°
2026-05-04 18:03 51.61606 9.39469 39013 ft 461 kts 106°
2026-05-04 18:04 51.60127 9.49516 39016 ft 460 kts 106°
2026-05-04 18:05 51.57896 9.64548 39009 ft 460 kts 107°
2026-05-04 18:05 51.56415 9.74489 39005 ft 460 kts 106°
2026-05-04 18:06 51.54152 9.89485 39006 ft 459 kts 107°
2026-05-04 18:06 51.52634 9.99450 39005 ft 459 kts 107°
2026-05-04 18:07 51.51111 10.09410 39005 ft 459 kts 107°
2026-05-04 18:07 51.49598 10.19294 38992 ft 458 kts 107°
2026-05-04 18:08 51.48071 10.29214 38996 ft 458 kts 107°
2026-05-04 18:08 51.46524 10.39125 38996 ft 457 kts 107°
2026-05-04 18:09 51.43401 10.58921 39000 ft 458 kts 107°
2026-05-04 18:10 51.41833 10.68811 38986 ft 457 kts 107°
2026-05-04 18:10 51.40254 10.78685 38989 ft 457 kts 107°
2026-05-04 18:11 51.38685 10.88494 38992 ft 457 kts 107°
2026-05-04 18:11 51.37095 10.98366 38993 ft 457 kts 108°
2026-05-04 18:12 51.35497 11.08217 38983 ft 457 kts 108°
2026-05-04 18:12 51.33879 11.18086 38977 ft 458 kts 108°
2026-05-04 18:13 51.32254 11.27953 38977 ft 459 kts 108°
2026-05-04 18:14 51.29793 11.42793 38984 ft 460 kts 108°
2026-05-04 18:14 51.28157 11.52616 38980 ft 461 kts 108°
2026-05-04 18:15 51.24818 11.72456 38985 ft 462 kts 108°
2026-05-04 18:16 51.23142 11.82354 38984 ft 462 kts 108°
2026-05-04 18:16 51.21460 11.92203 38987 ft 462 kts 108°
2026-05-04 18:17 51.18911 12.07034 38988 ft 462 kts 108°
2026-05-04 18:18 51.16348 12.21810 38979 ft 460 kts 108°
2026-05-04 18:18 51.14638 12.31640 38977 ft 460 kts 108°
2026-05-04 18:19 51.12349 12.44711 38959 ft 459 kts 108°
2026-05-04 18:19 51.10331 12.56071 38978 ft 458 kts 108°
2026-05-04 18:20 51.08868 12.64251 38973 ft 458 kts 108°
2026-05-04 18:20 51.07136 12.73920 38973 ft 457 kts 108°
2026-05-04 18:21 51.05375 12.83636 38993 ft 457 kts 108°
2026-05-04 18:21 51.03600 12.93355 38977 ft 457 kts 108°
2026-05-04 18:22 51.01834 13.03039 38984 ft 457 kts 108°
2026-05-04 18:22 51.00050 13.12718 38988 ft 456 kts 109°
2026-05-04 18:23 50.98258 13.22380 38992 ft 456 kts 109°
2026-05-04 18:23 50.96467 13.32039 38984 ft 456 kts 109°
2026-05-04 18:24 50.94713 13.41730 38977 ft 457 kts 108°
2026-05-04 18:24 50.92981 13.51487 38975 ft 458 kts 108°
2026-05-04 18:25 50.91205 13.61107 38972 ft 458 kts 109°
2026-05-04 18:25 50.89370 13.70758 38973 ft 458 kts 109°
2026-05-04 18:26 50.87532 13.80444 38978 ft 458 kts 109°
2026-05-04 18:26 50.85691 13.90119 38970 ft 458 kts 109°
2026-05-04 18:27 50.83227 13.99312 38972 ft 451 kts 126°
2026-05-04 18:27 50.79185 14.06762 38973 ft 443 kts 141°
2026-05-04 18:28 50.74624 14.13333 38965 ft 443 kts 141°
2026-05-04 18:28 50.70092 14.19864 38941 ft 444 kts 141°
2026-05-04 18:29 50.65497 14.26458 38953 ft 444 kts 141°
2026-05-04 18:29 50.60956 14.32959 38960 ft 444 kts 141°
2026-05-04 18:30 50.54085 14.42764 38950 ft 444 kts 141°
2026-05-04 18:31 50.49504 14.49282 38959 ft 444 kts 141°
2026-05-04 18:31 50.45008 14.55960 38959 ft 447 kts 135°
2026-05-04 18:32 50.40807 14.63152 38945 ft 447 kts 135°
2026-05-04 18:32 50.36588 14.70336 38949 ft 448 kts 135°
2026-05-04 18:33 50.32368 14.77508 38954 ft 448 kts 136°
2026-05-04 18:33 50.28163 14.84645 38961 ft 448 kts 136°
2026-05-04 18:34 50.23928 14.91806 38953 ft 448 kts 135°
2026-05-04 18:34 50.19683 14.98944 38959 ft 448 kts 135°
2026-05-04 18:35 50.15446 15.06068 38963 ft 448 kts 135°
2026-05-04 18:35 50.11207 15.13187 38963 ft 447 kts 135°
2026-05-04 18:36 50.06953 15.20293 38951 ft 447 kts 136°
2026-05-04 18:36 50.02694 15.27377 38952 ft 448 kts 135°
2026-05-04 18:37 49.98440 15.34443 38950 ft 448 kts 136°
2026-05-04 18:37 49.94183 15.41504 38949 ft 448 kts 136°
2026-05-04 18:38 49.89916 15.48553 38950 ft 448 kts 136°
2026-05-04 18:38 49.85667 15.55555 38952 ft 448 kts 136°
2026-05-04 18:39 49.81382 15.62593 38934 ft 448 kts 136°
2026-05-04 18:39 49.77095 15.69621 38938 ft 449 kts 136°
2026-05-04 18:40 49.72803 15.76645 38958 ft 449 kts 136°
2026-05-04 18:40 49.68458 15.83726 38695 ft 463 kts 136°
2026-05-04 18:40 49.66256 15.87302 38435 ft 467 kts 136°
2026-05-04 18:41 49.64018 15.90937 38146 ft 466 kts 136°
2026-05-04 18:41 49.61777 15.94578 37846 ft 464 kts 135°
2026-05-04 18:41 49.59551 15.98183 37558 ft 462 kts 135°
2026-05-04 18:41 49.57339 16.01760 37300 ft 460 kts 135°
2026-05-04 18:42 49.55140 16.05308 36916 ft 455 kts 136°
2026-05-04 18:42 49.52955 16.08820 36371 ft 451 kts 135°
2026-05-04 18:42 49.50820 16.12250 35852 ft 448 kts 136°
2026-05-04 18:42 49.48675 16.15694 35318 ft 445 kts 135°
2026-05-04 18:43 49.46536 16.19129 34776 ft 442 kts 135°
2026-05-04 18:43 49.44414 16.22542 34226 ft 441 kts 135°
2026-05-04 18:43 49.42294 16.25949 33630 ft 439 kts 135°
2026-05-04 18:43 49.40189 16.29323 33091 ft 435 kts 135°
2026-05-04 18:44 49.38105 16.32656 32561 ft 431 kts 135°
2026-05-04 18:44 49.36732 16.34852 32206 ft 429 kts 135°
2026-05-04 18:44 49.33978 16.39242 31502 ft 425 kts 135°
2026-05-04 18:44 49.31927 16.42498 30991 ft 421 kts 135°
2026-05-04 18:45 49.29900 16.45712 30498 ft 418 kts 135°
2026-05-04 18:45 49.27891 16.48893 30001 ft 415 kts 135°
2026-05-04 18:45 49.25885 16.52070 29485 ft 411 kts 135°
2026-05-04 18:45 49.23914 16.55195 29038 ft 405 kts 135°
2026-05-04 18:46 49.21966 16.58280 28564 ft 400 kts 135°
2026-05-04 18:46 49.20036 16.61332 28130 ft 394 kts 135°
2026-05-04 18:46 49.18138 16.64329 27688 ft 390 kts 135°
2026-05-04 18:46 49.16286 16.67244 27245 ft 386 kts 135°
2026-05-04 18:47 49.14407 16.70202 26802 ft 382 kts 135°
2026-05-04 18:47 49.12579 16.73116 26354 ft 378 kts 135°
2026-05-04 18:47 49.10792 16.75999 25916 ft 375 kts 134°
2026-05-04 18:47 49.09004 16.78901 25453 ft 373 kts 134°
2026-05-04 18:48 49.07230 16.81776 24992 ft 371 kts 135°
2026-05-04 18:48 49.05460 16.84635 24504 ft 370 kts 135°
2026-05-04 18:48 49.03696 16.87468 24036 ft 369 kts 135°
2026-05-04 18:48 49.01935 16.90291 23546 ft 368 kts 135°
2026-05-04 18:49 49.00173 16.93113 23030 ft 366 kts 135°
2026-05-04 18:49 48.98420 16.95919 22561 ft 363 kts 135°
2026-05-04 18:49 48.96687 16.98690 22095 ft 360 kts 135°
2026-05-04 18:49 48.94969 17.01432 21640 ft 358 kts 135°
2026-05-04 18:50 48.93256 17.04162 21189 ft 355 kts 135°
2026-05-04 18:50 48.91551 17.06877 20736 ft 353 kts 135°
2026-05-04 18:50 48.89861 17.09567 20294 ft 351 kts 136°
2026-05-04 18:50 48.88205 17.12200 19864 ft 349 kts 136°
2026-05-04 18:51 48.86530 17.14866 19430 ft 347 kts 136°
2026-05-04 18:51 48.84866 17.17514 18972 ft 346 kts 136°
2026-05-04 18:51 48.83207 17.20157 18544 ft 344 kts 136°
2026-05-04 18:51 48.81560 17.22781 18103 ft 343 kts 136°
2026-05-04 18:52 48.79797 17.25147 17763 ft 332 kts 151°
2026-05-04 18:52 48.77807 17.26805 17567 ft 322 kts 155°
2026-05-04 18:52 48.75830 17.28349 17238 ft 318 kts 156°
2026-05-04 18:52 48.73870 17.29871 16860 ft 315 kts 156°
2026-05-04 18:53 48.71918 17.31382 16502 ft 314 kts 156°
2026-05-04 18:53 48.69985 17.32880 16165 ft 311 kts 156°
2026-05-04 18:53 48.68084 17.34350 15833 ft 309 kts 156°
2026-05-04 18:53 48.66171 17.35832 15457 ft 306 kts 156°
2026-05-04 18:54 48.64291 17.37290 14817 ft 303 kts 155°
2026-05-04 18:54 48.62422 17.38734 14197 ft 300 kts 156°
2026-05-04 18:54 48.60573 17.40161 13573 ft 297 kts 156°
2026-05-04 18:54 48.58737 17.41573 12896 ft 294 kts 155°
2026-05-04 18:55 48.56918 17.42964 12233 ft 292 kts 155°
2026-05-04 18:55 48.53315 17.45688 10927 ft 286 kts 155°
2026-05-04 18:55 48.51540 17.47015 10278 ft 284 kts 155°
2026-05-04 18:56 48.49768 17.48330 9615 ft 282 kts 155°
2026-05-04 18:56 48.48038 17.49603 8933 ft 279 kts 155°
2026-05-04 18:56 48.46230 17.50536 8243 ft 272 kts 176°
2026-05-04 18:56 48.44392 17.50177 7583 ft 265 kts 201°
2026-05-04 18:57 48.42699 17.49080 6880 ft 264 kts 205°
2026-05-04 18:57 48.41050 17.47895 6171 ft 261 kts 205°
2026-05-04 18:57 48.39419 17.46705 5499 ft 257 kts 206°
2026-05-04 18:57 48.37841 17.45554 4869 ft 251 kts 206°
2026-05-04 18:58 48.36287 17.44414 4263 ft 244 kts 205°
2026-05-04 18:58 48.34839 17.43334 4131 ft 223 kts 206°
2026-05-04 18:58 48.33479 17.42303 3935 ft 216 kts 206°
2026-05-04 18:58 48.32150 17.41284 3631 ft 213 kts 205°
2026-05-04 18:59 48.30831 17.40259 3305 ft 212 kts 205°
2026-05-04 18:59 48.29549 17.39210 2969 ft 211 kts 211°
2026-05-04 18:59 48.28434 17.37801 2642 ft 211 kts 219°
2026-05-04 18:59 48.27366 17.36249 2517 ft 209 kts 220°
2026-05-04 19:00 48.26380 17.34806 2502 ft 193 kts 219°
2026-05-04 19:00 48.25442 17.33448 2407 ft 182 kts 218°
2026-05-04 19:00 48.24573 17.32191 2231 ft 164 kts 218°
2026-05-04 19:00 48.23797 17.31065 2032 ft 147 kts 216°
2026-05-04 19:01 48.23089 17.30043 1864 ft 134 kts 217°
2026-05-04 19:01 48.22433 17.29096 1690 ft 129 kts 216°
2026-05-04 19:01 48.21791 17.28176 1510 ft 126 kts 217°
2026-05-04 19:01 48.21149 17.27248 1338 ft 128 kts 217°
2026-05-04 19:02 48.20725 17.26635 1218 ft 127 kts 218°
2026-05-04 19:02 48.20084 17.25709 1055 ft 129 kts 219°
2026-05-04 19:02 48.19442 17.24765 884 ft 129 kts 219°
2026-05-04 19:02 48.18780 17.23819 692 ft 133 kts 217°
2026-05-04 19:03 48.18111 17.22859 522 ft 133 kts 219°
2026-05-04 19:03 48.17444 17.21910 615 ft 137 kts 222°
2026-05-04 19:03 48.16706 17.20745 1143 ft 172 kts 224°
2026-05-04 19:03 48.15828 17.19401 1784 ft 181 kts 219°
2026-05-04 19:04 48.14940 17.17978 2262 ft 192 kts 220°
2026-05-04 19:04 48.14026 17.16534 2833 ft 192 kts 221°
2026-05-04 19:04 48.13094 17.15104 2821 ft 189 kts 219°
2026-05-04 19:04 48.12023 17.14085 2809 ft 179 kts 195°
2026-05-04 19:05 48.10802 17.13986 2810 ft 178 kts 169°
2026-05-04 19:05 48.09710 17.14907 2908 ft 187 kts 139°
2026-05-04 19:05 48.09103 17.16674 2998 ft 206 kts 106°
2026-05-04 19:05 48.09306 17.18863 2999 ft 219 kts 77°
2026-05-04 19:06 48.09983 17.20917 3010 ft 226 kts 56°
2026-05-04 19:06 48.11090 17.22631 3016 ft 231 kts 46°
2026-05-04 19:06 48.12290 17.24260 3015 ft 234 kts 46°
2026-05-04 19:06 48.13513 17.25877 3012 ft 234 kts 45°
2026-05-04 19:07 48.14739 17.27493 3013 ft 235 kts 45°
2026-05-04 19:07 48.15950 17.29117 3000 ft 231 kts 45°
2026-05-04 19:07 48.17151 17.30735 3014 ft 233 kts 45°
2026-05-04 19:07 48.18338 17.32332 3003 ft 233 kts 46°
2026-05-04 19:08 48.19554 17.33955 3011 ft 233 kts 46°
2026-05-04 19:08 48.20763 17.35568 2995 ft 233 kts 46°
2026-05-04 19:08 48.21967 17.37182 2975 ft 230 kts 45°
2026-05-04 19:08 48.23154 17.38781 2721 ft 229 kts 45°
2026-05-04 19:09 48.24340 17.40380 2536 ft 223 kts 46°
2026-05-04 19:09 48.25483 17.41850 2498 ft 217 kts 36°
2026-05-04 19:09 48.26898 17.42488 2510 ft 213 kts 356°
2026-05-04 19:09 48.28256 17.41802 2511 ft 204 kts 316°
2026-05-04 19:10 48.29017 17.40137 2522 ft 189 kts 275°
2026-05-04 19:10 48.29045 17.38216 2521 ft 181 kts 248°
2026-05-04 19:10 48.28350 17.36852 2514 ft 162 kts 201°
2026-05-04 19:10 48.27308 17.36201 2506 ft 166 kts 210°
2026-05-04 19:11 48.26485 17.34949 2520 ft 170 kts 220°
2026-05-04 19:11 48.25653 17.33735 2468 ft 163 kts 218°
2026-05-04 19:11 48.24847 17.32584 2303 ft 158 kts 218°
2026-05-04 19:11 48.24074 17.31467 2095 ft 148 kts 217°
2026-05-04 19:12 48.23369 17.30449 1924 ft 137 kts 216°
2026-05-04 19:12 48.22016 17.28500 1569 ft 133 kts 216°
2026-05-04 19:12 48.21347 17.27538 1389 ft 135 kts 217°
2026-05-04 19:13 48.20672 17.26565 1208 ft 135 kts 220°
2026-05-04 19:13 48.19990 17.25583 1021 ft 138 kts 220°
2026-05-04 19:13 48.19295 17.24594 841 ft 140 kts 221°
2026-05-04 19:13 48.18576 17.23533 665 ft 144 kts 223°
2026-05-04 19:14 48.17861 17.22505 463 ft 144 kts 221°
2026-05-04 19:14 48.17203 17.21563 421 ft 108 kts 223°
2026-05-04 19:14 48.16784 17.20956 418 ft 60 kts 224°
2026-05-04 19:14 48.16569 17.20637 426 ft 22 kts 234°
2026-05-04 19:15 48.16614 17.20510 427 ft 13 kts 313°
2026-05-04 19:15 48.16647 17.20460 423 ft 4 kts 314°
2026-05-04 19:15 48.16656 17.20446 421 ft 0 kts 314°
2026-05-04 19:16 48.16676 17.20416 422 ft 5 kts 314°
2026-05-04 19:16 48.16698 17.20381 419 ft 5 kts 314°
2026-05-04 19:16 48.16721 17.20347 433 ft 5 kts 314°
2026-05-04 19:17 48.16746 17.20309 424 ft 7 kts 315°
2026-05-04 19:17 48.16790 17.20245 421 ft 9 kts 316°
2026-05-04 19:17 48.16833 17.20182 422 ft 8 kts 315°
2026-05-04 19:17 48.16848 17.20115 429 ft 7 kts 245°
2026-05-04 19:18 48.16824 17.20072 432 ft 2 kts 243°
2026-05-04 19:18 48.16828 17.20055 432 ft 3 kts 290°
2026-05-04 19:18 48.16845 17.20026 420 ft 4 kts 314°
2026-05-04 19:18 48.16859 17.20003 418 ft 1 kts 313°
2026-05-04 19:19 48.16859 17.20002 432 ft 0 kts 313°